When you browse on this site, cookies collect data to enhance your experience and personalize the content and advertising you see.
Visit our Privacy Policy to learn more. By continuing to use the site, you agree to this use of cookies and data.
  • In Romania
  • List of Countries
  • For 7 days
  • Water Temperature
  • Weather Map
  • Weather Widgets
  • user-avatar
    Login

    Hourly Weather Tacna

    Today, 3 June, Wednesday

    Time Temperature Precipitation Wind Pressure Humidity
    00:00 +18°C° 0 mm 1 mps 706 mmHg 79%
    01:00 +18°C° 0 mm 1 mps 706 mmHg 79%
    02:00 +18°C° 0 mm 1 mps 706 mmHg 78%
    03:00 +18°C° 0 mm 1 mps 705 mmHg 78%
    04:00 +18°C° 0 mm 1 mps 705 mmHg 78%
    05:00 +18°C° 0 mm 1 mps 705 mmHg 77%
    06:00 +18°C° 0 mm 1 mps 706 mmHg 76%
    07:00 +18°C° 0 mm 1 mps 706 mmHg 75%
    08:00 +19°C° 0 mm 1 mps 706 mmHg 73%
    09:00 +19°C° 0 mm 2 mps 706 mmHg 70%
    10:00 +20°C° 0 mm 2 mps 706 mmHg 67%
    11:00 +20°C° 0 mm 2 mps 705 mmHg 66%
    12:00 +20°C° 0 mm 3 mps 704 mmHg 65%
    13:00 +21°C° 0 mm 3 mps 703 mmHg 64%
    14:00 +20°C° 0 mm 3 mps 703 mmHg 68%
    15:00 +19°C° 0 mm 3 mps 703 mmHg 71%
    16:00 +19°C° 0 mm 3 mps 703 mmHg 74%
    17:00 +18°C° 0 mm 2 mps 704 mmHg 76%
    18:00 +18°C° 0 mm 2 mps 704 mmHg 78%
    19:00 +18°C° 0 mm 1 mps 705 mmHg 80%
    20:00 +18°C° 0 mm 1 mps 705 mmHg 80%
    21:00 +18°C° 0 mm 1 mps 705 mmHg 80%
    22:00 +18°C° 0 mm 1 mps 706 mmHg 80%
    23:00 +18°C° 0 mm 1 mps 706 mmHg 80%

    Tomorrow, 4 June, Thursday

    Time Temperature Precipitation Wind Pressure Humidity
    00:00 +18°C° 0 mm 1 mps 705 mmHg 79%
    01:00 +18°C° 0 mm 1 mps 705 mmHg 79%
    02:00 +18°C° 0 mm 1 mps 705 mmHg 80%
    03:00 +16°C° 0 mm 1 mps 705 mmHg 80%
    04:00 +16°C° 0 mm 1 mps 705 mmHg 80%
    05:00 +16°C° 0 mm 1 mps 705 mmHg 80%
    06:00 +18°C° 0 mm 1 mps 706 mmHg 79%
    07:00 +18°C° 0 mm 1 mps 706 mmHg 78%
    08:00 +19°C° 0 mm 1 mps 706 mmHg 72%
    09:00 +20°C° 0 mm 1 mps 706 mmHg 67%
    10:00 +21°C° 0 mm 1 mps 706 mmHg 61%
    11:00 +21°C° 0 mm 2 mps 705 mmHg 59%
    12:00 +21°C° 0 mm 2 mps 705 mmHg 58%
    13:00 +22°C° 0 mm 3 mps 704 mmHg 56%
    14:00 +21°C° 0 mm 2 mps 704 mmHg 60%
    15:00 +20°C° 0 mm 2 mps 704 mmHg 64%
    16:00 +20°C° 0 mm 2 mps 704 mmHg 68%
    17:00 +19°C° 0 mm 2 mps 704 mmHg 70%
    18:00 +19°C° 0 mm 1 mps 705 mmHg 73%
    19:00 +18°C° 0 mm 1 mps 705 mmHg 75%
    20:00 +18°C° 0 mm 1 mps 705 mmHg 74%
    21:00 +18°C° 0 mm 1 mps 706 mmHg 74%
    22:00 +18°C° 0 mm 1 mps 706 mmHg 74%
    23:00 +18°C° 0 mm 1 mps 706 mmHg 72%

    Day after tomorrow, 5 June, Friday

    Time Temperature Precipitation Wind Pressure Humidity
    00:00 +16°C° 0 mm 1 mps 705 mmHg 71%
    01:00 +16°C° 0 mm 1 mps 705 mmHg 70%
    02:00 +15°C° 0 mm 0 mps 704 mmHg 70%
    03:00 +14°C° 0 mm 0 mps 704 mmHg 70%
    04:00 +14°C° 0 mm 0 mps 704 mmHg 70%
    05:00 +15°C° 0 mm 0 mps 704 mmHg 68%
    06:00 +15°C° 0 mm 0 mps 704 mmHg 66%
    07:00 +18°C° 0 mm 1 mps 704 mmHg 64%
    08:00 +20°C° 0 mm 1 mps 705 mmHg 57%
    09:00 +21°C° 0 mm 2 mps 705 mmHg 51%
    10:00 +23°C° 0 mm 2 mps 705 mmHg 44%
    11:00 +24°C° 0 mm 2 mps 705 mmHg 43%
    12:00 +25°C° 0 mm 3 mps 704 mmHg 43%
    13:00 +25°C° 0 mm 3 mps 704 mmHg 42%
    14:00 +24°C° 0 mm 3 mps 703 mmHg 47%
    15:00 +23°C° 0 mm 2 mps 703 mmHg 52%
    16:00 +21°C° 0 mm 2 mps 703 mmHg 57%
    17:00 +21°C° 0 mm 1 mps 704 mmHg 62%
    18:00 +20°C° 0 mm 1 mps 704 mmHg 67%
    19:00 +17°C° 0 mm 0 mps 705 mmHg 72%
    20:00 +16°C° 0 mm 0 mps 705 mmHg 72%
    21:00 +16°C° 0 mm 0 mps 705 mmHg 71%
    22:00 +16°C° 0 mm 0 mps 706 mmHg 71%
    23:00 +16°C° 0 mm 0 mps 706 mmHg 70%

    6 June, Saturday

    Time Temperature Precipitation Wind Pressure Humidity
    00:00 +18°C° 0 mm 1 mps 705 mmHg 68%
    01:00 +18°C° 0 mm 1 mps 705 mmHg 67%
    02:00 +18°C° 0 mm 1 mps 705 mmHg 68%
    03:00 +15°C° 0 mm 0 mps 705 mmHg 69%
    04:00 +15°C° 0 mm 0 mps 705 mmHg 69%
    05:00 +15°C° 0 mm 0 mps 705 mmHg 68%
    06:00 +16°C° 0 mm 0 mps 705 mmHg 68%
    07:00 +16°C° 0 mm 0 mps 705 mmHg 67%
    08:00 +20°C° 0 mm 1 mps 705 mmHg 60%
    09:00 +21°C° 0 mm 2 mps 706 mmHg 53%
    10:00 +24°C° 0 mm 2 mps 706 mmHg 47%
    11:00 +24°C° 0 mm 3 mps 705 mmHg 45%
    12:00 +25°C° 0 mm 3 mps 704 mmHg 44%
    13:00 +26°C° 0 mm 3 mps 704 mmHg 42%
    14:00 +25°C° 0 mm 3 mps 704 mmHg 48%
    15:00 +23°C° 0 mm 2 mps 703 mmHg 54%
    16:00 +21°C° 0 mm 2 mps 703 mmHg 60%
    17:00 +21°C° 0 mm 1 mps 704 mmHg 64%
    18:00 +20°C° 0 mm 1 mps 704 mmHg 68%
    19:00 +18°C° 0 mm 0 mps 705 mmHg 72%
    20:00 +17°C° 0 mm 0 mps 705 mmHg 72%
    21:00 +17°C° 0 mm 0 mps 705 mmHg 71%
    22:00 +17°C° 0 mm 0 mps 705 mmHg 71%
    23:00 +16°C° 0 mm 0 mps 705 mmHg 72%

    7 June, Sunday

    Time Temperature Precipitation Wind Pressure Humidity
    00:00 +16°C° 0 mm 0 mps 705 mmHg 73%
    01:00 +15°C° 0 mm 0 mps 705 mmHg 73%
    02:00 +15°C° 0 mm 0 mps 704 mmHg 74%
    03:00 +15°C° 0 mm 0 mps 704 mmHg 74%
    04:00 +15°C° 0 mm 0 mps 704 mmHg 74%
    05:00 +16°C° 0 mm 0 mps 705 mmHg 70%
    06:00 +17°C° 0 mm 0 mps 706 mmHg 66%
    07:00 +17°C° 0 mm 0 mps 706 mmHg 62%
    08:00 +21°C° 0 mm 1 mps 706 mmHg 56%
    09:00 +23°C° 0 mm 1 mps 707 mmHg 50%
    10:00 +25°C° 0 mm 2 mps 707 mmHg 44%
    11:00 +25°C° 0 mm 2 mps 706 mmHg 44%
    12:00 +26°C° 0 mm 3 mps 706 mmHg 44%
    13:00 +26°C° 0 mm 3 mps 705 mmHg 44%
    14:00 +25°C° 0 mm 3 mps 705 mmHg 47%
    15:00 +25°C° 0 mm 2 mps 704 mmHg 50%
    16:00 +24°C° 0 mm 2 mps 704 mmHg 54%
    17:00 +23°C° 0 mm 2 mps 705 mmHg 59%
    18:00 +21°C° 0 mm 1 mps 705 mmHg 64%
    19:00 +18°C° 0 mm 0 mps 705 mmHg 69%
    20:00 +18°C° 0 mm 0 mps 705 mmHg 70%
    21:00 +17°C° 0 mm 0 mps 705 mmHg 70%
    22:00 +17°C° 0 mm 0 mps 705 mmHg 71%
    23:00 +17°C° 0 mm 0 mps 705 mmHg 71%

    8 June, Monday

    Time Temperature Precipitation Wind Pressure Humidity
    00:00 +16°C° 0 mm 0 mps 705 mmHg 71%
    01:00 +16°C° 0 mm 0 mps 705 mmHg 71%
    02:00 +16°C° 0 mm 0 mps 704 mmHg 71%
    03:00 +16°C° 0 mm 0 mps 704 mmHg 72%
    04:00 +15°C° 0 mm 0 mps 704 mmHg 72%
    05:00 +16°C° 0 mm 0 mps 705 mmHg 67%
    06:00 +17°C° 0 mm 0 mps 705 mmHg 62%
    07:00 +18°C° 0 mm 0 mps 706 mmHg 57%
    08:00 +22°C° 0 mm 1 mps 706 mmHg 52%
    09:00 +24°C° 0 mm 1 mps 706 mmHg 47%
    10:00 +25°C° 0 mm 2 mps 706 mmHg 42%
    11:00 +26°C° 0 mm 2 mps 706 mmHg 42%
    12:00 +26°C° 0 mm 3 mps 705 mmHg 42%
    13:00 +26°C° 0 mm 3 mps 705 mmHg 41%
    14:00 +26°C° 0 mm 3 mps 704 mmHg 46%
    15:00 +25°C° 0 mm 2 mps 704 mmHg 50%
    16:00 +24°C° 0 mm 2 mps 704 mmHg 54%
    17:00 +23°C° 0 mm 1 mps 704 mmHg 59%
    18:00 +22°C° 0 mm 1 mps 704 mmHg 64%
    19:00 +18°C° 0 mm 0 mps 705 mmHg 69%
    20:00 +18°C° 0 mm 0 mps 705 mmHg 71%
    21:00 +18°C° 0 mm 0 mps 705 mmHg 72%
    22:00 +17°C° 0 mm 0 mps 705 mmHg 74%
    23:00 +17°C° 0 mm 0 mps 705 mmHg 75%
    Show more